GW6901 Weather Reports


Display with metric or nautical units.
time (UTC)temp
F
wind
direction
speed
MPH
gust
MPH
rain 1hr
in
rain 24hr
in
rain mn
in
humidity
%
barometer
mb
20260503202004 64 352 3.0 9.0 0.00 0.00 0.00 44 1005.8
20260503201508 66 19 4.0 8.0 0.00 0.00 0.00 44 1005.9
20260503201006 66 302 2.0 8.0 0.00 0.00 0.00 44 1006.1
20260503200502 65 332 4.0 17.0 0.00 0.00 0.00 45 1006.2
20260503200013 64 93 3.0 17.0 0.00 0.00 0.00 46 1006.4
20260503195506 64 169 4.0 10.0 0.00 0.00 0.00 45 1006.4
20260503195005 65 318 3.0 10.0 0.00 0.00 0.00 45 1006.5
20260503194531 65 101 3.0 9.0 0.00 0.00 0.00 44 1006.6
20260503194006 65 348 3.0 14.0 0.00 0.00 0.00 43 1006.6
20260503193508 64 69 7.0 16.0 0.00 0.00 0.00 44 1006.7
20260503193019 65 186 5.0 16.0 0.00 0.00 0.00 43 1006.8
20260503192508 64 64 2.0 14.0 0.00 0.00 0.00 44 1006.8
20260503192009 64 179 5.0 14.0 0.00 0.00 0.00 42 1006.7
20260503191526 64 230 5.0 14.0 0.00 0.00 0.00 42 1006.8
20260503191003 65 286 4.0 18.0 0.00 0.00 0.00 40 1006.8
20260503190502 65 99 6.0 18.0 0.00 0.00 0.00 40 1006.7
20260503190008 66 11 3.0 10.0 0.00 0.00 0.00 40 1006.7
20260503185511 66 146 3.0 12.0 0.00 0.00 0.00 39 1006.8
20260503185006 65 71 4.0 12.0 0.00 0.00 0.00 41 1006.8
20260503184521 65 41 3.0 16.0 0.00 0.00 0.00 42 1006.8
20260503184006 64 50 4.0 16.0 0.00 0.00 0.00 43 1006.8
20260503183505 63 160 8.0 20.0 0.00 0.00 0.00 44 1006.9
20260503183020 63 244 6.0 20.0 0.00 0.00 0.00 44 1007.0
20260503182509 64 166 3.0 15.0 0.00 0.00 0.00 46 1007.1
20260503182007 63 348 5.0 15.0 0.00 0.00 0.00 44 1007.1
20260503181523 63 155 4.0 16.0 0.00 0.00 0.00 45 1007.3
20260503181007 62 57 8.0 16.0 0.00 0.00 0.00 46 1007.5
20260503180511 63 339 5.0 19.0 0.00 0.00 0.00 46 1007.5
20260503180010 63 140 6.0 19.0 0.00 0.00 0.00 46 1007.5
20260503175502 63 163 6.0 16.0 0.00 0.00 0.00 45 1007.5
20260503175002 63 158 5.0 16.0 0.00 0.00 0.00 47 1007.7
20260503174512 63 221 3.0 16.0 0.00 0.00 0.00 47 1007.9
20260503174006 61 159 7.0 14.0 0.00 0.00 0.00 48 1007.9
20260503173506 61 123 4.0 16.0 0.00 0.00 0.00 50 1008.0
20260503173016 61 333 3.0 16.0 0.00 0.00 0.00 50 1008.0
20260503172505 60 149 6.0 22.0 0.00 0.00 0.00 51 1008.2
20260503172011 60 136 4.0 22.0 0.00 0.00 0.00 53 1008.4
20260503171524 59 140 6.0 16.0 0.00 0.00 0.00 52 1008.6
20260503171007 59 11 7.0 16.0 0.00 0.00 0.00 52 1008.7
20260503170508 59 163 2.0 18.0 0.00 0.00 0.00 52 1008.7
20260503151011 55 109 4.0 10.0 0.00 0.00 0.00 55 1010.3
20260503150509 56 293 4.0 11.0 0.00 0.00 0.00 53 1010.2
20260503131004 53 312 2.0 8.0 0.00 0.00 0.00 52 1011.1
20260503130513 53 217 2.0 8.0 0.00 0.00 0.00 52 1011.1
20260503110511 47 306 1.0 5.0 0.00 0.00 0.00 54 1011.0
20260503090510 46 9 1.0 5.0 0.00 0.00 0.00 53 1011.7
20260503081514 46 299 1.0 4.0 0.00 0.00 0.00 52 1012.1
20260503081003 46 277 2.0 4.0 0.00 0.00 0.00 52 1012.1
20260503080503 47 12 1.0 4.0 0.00 0.00 0.00 51 1012.2
20260503072508 47 21 1.0 6.0 0.00 0.00 0.00 50 1012.4
20260503072007 47 325 2.0 6.0 0.00 0.00 0.00 50 1012.4
20260503071526 47 5 2.0 8.0 0.00 0.00 0.00 50 1012.5
20260503071003 47 348 2.0 8.0 0.00 0.00 0.00 49 1012.5
20260503070503 47 138 2.0 6.0 0.00 0.00 0.00 49 1012.5
20260503055003 47 31 0.0 7.0 0.00 0.00 0.00 49 1013.2
20260503054519 47 201 2.0 7.0 0.00 0.00 0.00 48 1013.1
20260503054003 47 112 1.0 4.0 0.00 0.00 0.00 49 1013.2
20260503053503 47 62 1.0 4.0 0.00 0.00 0.00 49 1013.3
20260503053031 47 190 1.0 4.0 0.00 0.00 0.00 49 1013.3
20260503052507 47 273 1.0 4.0 0.00 0.00 0.00 49 1013.3
20260503052008 47 352 1.0 4.0 0.00 0.00 0.00 49 1013.4
20260503051522 47 352 1.0 3.0 0.00 0.00 0.00 48 1013.5
20260503051007 47 215 1.0 3.0 0.00 0.00 0.00 48 1013.4
20260503050511 48 37 1.0 3.0 0.00 0.00 0.00 48 1013.4
20260503050024 48 250 1.0 5.0 0.00 0.00 0.00 48 1013.4
20260503045511 48 154 2.0 5.0 0.00 0.00 0.00 48 1013.5
20260503045003 48 215 1.0 5.0 0.00 0.00 0.00 48 1013.4
20260503044510 48 18 1.0 5.0 0.00 0.00 0.00 47 1013.5
20260503044003 48 340 1.0 6.0 0.00 0.00 0.00 47 1013.5
20260503043504 48 352 1.0 6.0 0.00 0.00 0.00 47 1013.5
20260503043025 48 24 2.0 5.0 0.00 0.00 0.00 46 1013.5
20260503042504 48 360 1.0 4.0 0.00 0.00 0.00 46 1013.5
20260503042007 48 272 1.0 5.0 0.00 0.00 0.00 46 1013.6
20260503041522 49 128 1.0 3.0 0.00 0.00 0.00 46 1013.6
20260503041007 49 341 1.0 4.0 0.00 0.00 0.00 46 1013.6
20260503040505 49 286 1.0 4.0 0.00 0.00 0.00 45 1013.6
20260503040035 49 252 1.0 3.0 0.00 0.00 0.00 45 1013.6
20260503035507 49 227 1.0 5.0 0.00 0.00 0.00 45 1013.7
20260503035011 49 181 1.0 5.0 0.00 0.00 0.00 45 1013.8
20260503034527 49 240 1.0 5.0 0.00 0.00 0.00 44 1013.8
20260503034007 49 300 1.0 4.0 0.00 0.00 0.00 44 1013.9
20260503033508 50 183 0.0 4.0 0.00 0.00 0.00 43 1013.9
20260503033014 50 171 1.0 4.0 0.00 0.00 0.00 43 1013.9
20260503032503 50 127 1.0 4.0 0.00 0.00 0.00 43 1013.9
20260503032004 50 141 1.0 5.0 0.00 0.00 0.00 43 1014.0
20260503031528 50 146 1.0 5.0 0.00 0.00 0.00 43 1014.1
20260503031008 50 336 2.0 4.0 0.00 0.00 0.00 43 1014.1
20260503030510 50 196 1.0 6.0 0.00 0.00 0.00 43 1014.2
20260503030025 50 212 1.0 6.0 0.00 0.00 0.00 43 1014.3
20260503025506 50 352 1.0 4.0 0.00 0.00 0.00 43 1014.3
20260503025007 50 333 1.0 4.0 0.00 0.00 0.00 43 1014.3
20260503024524 50 40 1.0 3.0 0.00 0.00 0.00 43 1014.3
20260503024007 50 79 1.0 3.0 0.00 0.00 0.00 44 1014.3
20260503023512 50 271 1.0 3.0 0.00 0.00 0.00 44 1014.3
20260503023027 49 192 1.0 3.0 0.00 0.00 0.00 44 1014.3
20260503022503 49 194 1.0 2.0 0.00 0.00 0.00 45 1014.3
20260503022011 49 209 1.0 2.0 0.00 0.00 0.00 45 1014.3
20260503021512 49 205 0.0 2.0 0.00 0.00 0.00 44 1014.3
20260503021007 50 195 0.0 3.0 0.00 0.00 0.00 44 1014.3
20260503020506 50 282 1.0 3.0 0.00 0.00 0.00 44 1014.3
20260503020018 49 234 0.0 2.0 0.00 0.00 0.00 44 1014.3
20260503015507 50 189 0.0 2.0 0.00 0.00 0.00 44 1014.3
20260503015006 50 232 0.0 2.0 0.00 0.00 0.00 43 1014.2
20260503014525 50 189 0.0 2.0 0.00 0.00 0.00 43 1014.1
20260503014003 50 180 0.0 2.0 0.00 0.00 0.00 43 1014.1
20260503013508 50 239 0.0 2.0 0.00 0.00 0.00 43 1014.1
20260503013007 50 187 0.0 2.0 0.00 0.00 0.00 43 1014.1
20260503012511 50 199 0.0 2.0 0.00 0.00 0.00 43 1014.1
20260503012005 50 238 0.0 2.0 0.00 0.00 0.00 42 1014.0
20260503011515 51 211 0.0 2.0 0.00 0.00 0.00 41 1014.0
20260503011005 51 210 0.0 2.0 0.00 0.00 0.00 41 1014.1
20260503010507 51 213 0.0 2.0 0.00 0.00 0.00 40 1014.0
20260503010023 52 281 0.0 2.0 0.00 0.00 0.00 40 1014.1
20260503005507 52 217 0.0 2.0 0.00 0.00 0.00 40 1014.1
20260503005005 52 233 0.0 2.0 0.00 0.00 0.00 40 1014.1
20260503004549 53 261 0.0 2.0 0.00 0.00 0.00 39 1014.1
20260503004006 53 217 0.0 2.0 0.00 0.00 0.00 39 1014.1
20260503003507 53 321 0.0 2.0 0.00 0.00 0.00 38 1014.1
20260503003006 53 276 0.0 2.0 0.00 0.00 0.00 38 1014.2
20260503002504 54 316 0.0 2.0 0.00 0.00 0.00 38 1014.2
20260503002008 54 338 0.0 2.0 0.00 0.00 0.00 37 1014.2
20260503001508 54 42 1.0 3.0 0.00 0.00 0.00 36 1014.3
20260503001004 54 331 1.0 3.0 0.00 0.00 0.00 36 1014.2
20260503000503 55 305 0.0 3.0 0.00 0.00 0.00 37 1014.3
20260503000017 55 327 1.0 4.0 0.00 0.00 0.00 36 1014.3
20260502235505 55 265 1.0 4.0 0.00 0.00 0.00 36 1014.3
20260502235008 55 324 1.0 2.0 0.00 0.00 0.00 36 1014.3
20260502234526 55 341 1.0 3.0 0.00 0.00 0.00 36 1014.4
20260502234007 55 188 1.0 5.0 0.00 0.00 0.00 36 1014.4
20260502233508 55 29 1.0 5.0 0.00 0.00 0.00 36 1014.4
20260502233026 56 352 1.0 3.0 0.00 0.00 0.00 36 1014.5
20260502232507 56 175 1.0 3.0 0.00 0.00 0.00 36 1014.6
20260502232005 56 259 1.0 3.0 0.00 0.00 0.00 35 1014.6
20260502231508 56 255 2.0 3.0 0.00 0.00 0.00 35 1014.6
20260502231003 56 138 1.0 5.0 0.00 0.00 0.00 35 1014.6
20260502230503 56 215 2.0 5.0 0.00 0.00 0.00 34 1014.6
20260502230015 56 305 2.0 7.0 0.00 0.00 0.00 35 1014.7
20260502225507 56 164 2.0 7.0 0.00 0.00 0.00 36 1014.7
20260502225008 56 92 1.0 6.0 0.00 0.00 0.00 35 1014.6
20260502224520 56 322 1.0 8.0 0.00 0.00 0.00 35 1014.8
20260502224007 57 134 2.0 8.0 0.00 0.00 0.00 34 1014.9
20260502223508 57 138 1.0 5.0 0.00 0.00 0.00 36 1014.9
20260502223022 57 294 2.0 5.0 0.00 0.00 0.00 34 1014.9
20260502222508 57 209 2.0 4.0 0.00 0.00 0.00 37 1015.0
20260502222007 57 131 1.0 4.0 0.00 0.00 0.00 37 1015.0
20260502221526 57 321 1.0 4.0 0.00 0.00 0.00 36 1015.0
20260502221003 57 350 0.0 3.0 0.00 0.00 0.00 36 1015.1
20260502220503 57 325 1.0 4.0 0.00 0.00 0.00 35 1015.1
20260502220012 57 144 1.0 5.0 0.00 0.00 0.00 36 1015.1
20260502215504 57 42 1.0 6.0 0.00 0.00 0.00 37 1015.2
20260502215004 56 11 2.0 6.0 0.00 0.00 0.00 37 1015.2
20260502214533 56 126 1.0 3.0 0.00 0.00 0.00 36 1015.3
20260502214005 56 146 0.0 3.0 0.00 0.00 0.00 36 1015.3
20260502213507 56 348 1.0 3.0 0.00 0.00 0.00 37 1015.3
20260502213023 56 184 1.0 5.0 0.00 0.00 0.00 39 1015.4
20260502212508 56 185 1.0 5.0 0.00 0.00 0.00 36 1015.4
20260502212008 57 106 1.0 2.0 0.00 0.00 0.00 36 1015.4
20260502211532 57 161 1.0 5.0 0.00 0.00 0.00 35 1015.5
20260502211006 56 148 1.0 9.0 0.00 0.00 0.00 37 1015.5
20260502210510 55 190 2.0 9.0 0.00 0.00 0.00 37 1015.5
20260502210022 57 190 3.0 11.0 0.00 0.00 0.00 35 1015.5
20260502205503 56 205 2.0 11.0 0.00 0.00 0.00 37 1015.6
20260502205007 57 352 3.0 9.0 0.00 0.00 0.00 36 1015.7
20260502204518 56 108 1.0 4.0 0.00 0.00 0.00 35 1015.8
20260502204003 57 150 2.0 6.0 0.00 0.00 0.00 37 1015.9
20260502203507 56 89 0.0 6.0 0.00 0.00 0.00 40 1015.9
20260502203018 56 351 1.0 3.0 0.00 0.00 0.00 38 1015.9
20260502202507 56 5 0.0 4.0 0.00 0.00 0.00 36 1016.0